Regional Weather Roundup
Issued by NWS

Home | Current Version | Previous Version | Text Only | Print | Product List | Glossary On
Versions: 1 2 3 4 5 6 7 8 9 10 11 12 13 14 15 16 17 18 19 20 21 22 23 24 25 26 27 28 29 30 31 32 33 34 35 36 37 38 39 40 41 42 43 44 45 46 47 48 49 50
000
ASUS44 KLIX 291211
RWRLA
LOUISIANA WEATHER ROUNDUP
NATIONAL WEATHER SERVICE NEW ORLEANS LA
700 AM CDT FRI APR 29 2016

NOTE: "FAIR" INDICATES FEW OR NO CLOUDS BELOW 12,000 FEET WITH NO
      SIGNIFICANT WEATHER AND/OR OBSTRUCTIONS TO VISIBILITY.
      SKY/WX - SKY CONDITION AND SIGNIFICANT WEATHER.
      TMP - AIR TEMPERATURE.    DP   - DEWPOINT TEMPERATURE.
      RH  - RELATIVE HUMIDITY.  PRES - PRESSURE.
      HX  - HEAT INDEX.         WCI  - WIND CHILL INDEX.

*  THESE STATIONS ARE NOT NWS OR FAA STATIONS AND ARE NOT UNDER
   NWS QUALITY CONTROL.

LAZ040-048-061>063-065-066-069-291300-
SOUTHEAST LOUISIANA

CITY           SKY/WX    TMP DP  RH WIND       PRES   REMARKS
N.O. AUDUBON     N/A     73  73 100 MISG        N/A
6HR MIN TEMP:  72; 6HR MAX TEMP:  75;

N.O. INTL ARPT MOCLDY    75  72  90 SE9       29.92R
6HR MIN TEMP:  73; 6HR MAX TEMP:  75;

N.O. LAKEFRONT CLOUDY    70  70 100 SE8       29.93R FOG
6HR MIN TEMP:  68; 6HR MAX TEMP:  70;

N.O. DOWNTOWN* CLOUDY    74  72  93 S7        29.93R
6HR MIN TEMP:  73; 6HR MAX TEMP:  75;

RESERVE*       CLOUDY    75  73  92 CALM      29.92R FOG
6HR MIN TEMP:  72; 6HR MAX TEMP:  75;

SLIDELL        CLOUDY    72  71  97 CALM      29.93R FOG
6HR MIN TEMP:  67; 6HR MAX TEMP:  72;

BATON ROUGE    CLOUDY    73  70  90 SE7       29.90S FOG
6HR MIN TEMP:  71; 6HR MAX TEMP:  75;

BOOTHVILLE     MOCLDY    73  72  96 SE8       29.94S FOG
6HR MIN TEMP:  70; 6HR MAX TEMP:  73;

BELLE CHASSE   CLOUDY    73  72  96 SE13      29.92R FOG
6HR MIN TEMP:  72; 6HR MAX TEMP:  74;

BOGALUSA*      CLOUDY    71  68  89 SE3       29.96R
6HR MIN TEMP:  67; 6HR MAX TEMP:  71;

GALLIANO*      CLOUDY    72  70  94 SE6       29.92R
6HR MIN TEMP:  71; 6HR MAX TEMP:  75;

NEW ROADS*     CLOUDY    73  71  94 SE9       29.89S FOG
6HR MIN TEMP:  72; 6HR MAX TEMP:  74;

GONZALES*      CLOUDY    73  73 100 E3        29.90R FOG
6HR MIN TEMP:  69; 6HR MAX TEMP:  74;

HAMMOND*       CLOUDY    70  66  88 E7        29.92S FOG
HOUMA*         MOCLDY    73  73 100 SE9       29.91S
PORT FOURCHON* CLOUDY    75  73  94 SE14G22   29.92R

$$

LAZ041-044-053-054-291300-
SOUTHWEST LOUISIANA

CITY           SKY/WX    TMP DP  RH WIND       PRES   REMARKS
LAKE CHARLES   CLOUDY    75  72  90 S9G17     29.83S
6HR MIN TEMP:  75; 6HR MAX TEMP:  77;

LAFAYETTE      MOCLDY    75  72  90 SE9       29.86F
6HR MIN TEMP:  75; 6HR MAX TEMP:  77;

PATTERSON      NOT AVBL
SALT POINT       N/A     74  74 100 SE8       29.88R
NEW IBERIA     MOCLDY    74  72  93 SE12      29.88S FOG
6HR MIN TEMP:  74; 6HR MAX TEMP:  76;

CHENAULT AIRPK CLOUDY    75  72  88 SE14      29.83S

$$

LAZ027-028-291300-
CENTRAL LOUISIANA

CITY           SKY/WX    TMP DP  RH WIND       PRES   REMARKS
FORT POLK      CLOUDY    74  72  92 SE15      29.81S
6HR MIN TEMP:  74; 6HR MAX TEMP:  76;

ALEXANDRIA INT CLOUDY    74  72  93 SE12      29.82S FOG
6HR MIN TEMP:  74; 6HR MAX TEMP:  74; 6HR PCP: TRACE;

ALEXANDRIA     CLOUDY    74  71  91 SE9       29.84S
6HR MIN TEMP:  74; 6HR MAX TEMP:  75;


$$

LAZ001-002-291300-
NORTHWEST LOUISIANA

CITY           SKY/WX    TMP DP  RH WIND       PRES   REMARKS
SHREVEPORT     CLOUDY    76  70  82 S16G24    29.76R
6HR MIN TEMP:  74; 6HR MAX TEMP:  76;

BARKSDALE AFB  MOCLDY    75  72  89 S18       29.76S
6HR MIN TEMP:  71; 6HR MAX TEMP:  75;

DTN SHREVEPORT CLOUDY    76  70  82 S14G22    29.77R
6HR MIN TEMP:  72; 6HR MAX TEMP:  76;


$$

LAZ014-016-291300-
NORTHEAST LOUISIANA

CITY           SKY/WX    TMP DP  RH WIND       PRES   REMARKS
MONROE         CLOUDY    74  71  91 SE12      29.84F
6HR MIN TEMP:  69; 6HR MAX TEMP:  74;

TALLULAH       CLOUDY    73  71  93 SE6       29.88R
6HR MIN TEMP:  73; 6HR MAX TEMP:  75;


$$




USA.gov is the U.S. government's official web portal to all federal, state and local government web resources and services.